Location: Paderno d�Adda
(45.6667°N, 9.4333°E)
Time: 14:41:26
(UTC+00:00)

Cosmos 2098 Rocket - Pass Details

Date: 19 September 2020
Orbit: 366 x 1185 km, 82.9° (Epoch: 31 October)

Event Time Altitude Azimuth Distance (km) Brightness Sun altitude
Rises 20:20:06 0° 353° (N) 4,048 7.8 -29.4°
Reaches altitude 10° 20:22:58 10° 356° (N) 3,029 7.0 -29.8°
Enters shadow 20:29:10 59° 39° (NE) 1,189 4.3 -30.6°
